Time,TemperatureF,DewpointF,PressureIn,WindDirection,WindDirectionDegrees,WindSpeedMPH,WindSpeedGustMPH,Humidity,HourlyPrecipIn,Conditions,Clouds,dailyrainin,SoftwareType,DateUTC
2013-05-30 00:00:00,53.2,48.5,29.83,SW,231,3.0,3.0,84,0.00,,,0.00,Wunderground v.1.15,2013-05-30 07:00:00,
2013-05-30 00:05:00,53.1,48.4,29.84,SW,234,2.0,5.0,84,0.00,,,0.00,Wunderground v.1.15,2013-05-30 07:05:00,
2013-05-30 00:10:00,53.0,48.3,29.84,SW,221,1.0,1.0,84,0.00,,,0.00,Wunderground v.1.15,2013-05-30 07:10:00,
2013-05-30 00:15:00,52.8,48.1,29.84,West,270,1.0,2.0,84,0.00,,,0.00,Wunderground v.1.15,2013-05-30 07:15:00,
2013-05-30 00:24:00,52.7,48.3,29.84,WSW,254,1.0,1.0,85,0.00,,,0.00,Wunderground v.1.15,2013-05-30 07:24:00,
2013-05-30 00:30:00,52.6,48.2,29.84,WSW,239,2.0,2.0,85,0.00,,,0.00,Wunderground v.1.15,2013-05-30 07:30:00,
2013-05-30 00:40:00,52.5,47.8,29.84,SW,223,2.0,3.0,84,0.00,,,0.00,Wunderground v.1.15,2013-05-30 07:40:00,
2013-05-30 00:45:00,52.4,48.0,29.84,WSW,252,2.0,3.0,85,0.00,,,0.00,Wunderground v.1.15,2013-05-30 07:45:00,
2013-05-30 00:50:00,52.3,47.9,29.84,WSW,238,2.0,2.0,85,0.00,,,0.00,Wunderground v.1.15,2013-05-30 07:50:00,
2013-05-30 00:55:00,52.3,47.9,29.84,SW,224,2.0,2.0,85,0.00,,,0.00,Wunderground v.1.15,2013-05-30 07:55:00,
2013-05-30 01:00:00,52.2,47.8,29.84,WSW,244,2.0,2.0,85,0.00,,,0.00,Wunderground v.1.15,2013-05-30 08:00:00,
2013-05-30 01:05:00,52.1,47.7,29.84,SW,234,2.0,2.0,85,0.00,,,0.00,Wunderground v.1.15,2013-05-30 08:05:00,
2013-05-30 01:10:00,52.0,47.9,29.84,SSE,164,2.0,3.0,86,0.00,,,0.00,Wunderground v.1.15,2013-05-30 08:10:00,
2013-05-30 01:20:00,51.7,47.6,29.84,WSW,246,2.0,2.0,86,0.00,,,0.00,Wunderground v.1.15,2013-05-30 08:20:00,
2013-05-30 01:25:00,51.6,47.5,29.84,WSW,251,2.0,2.0,86,0.00,,,0.00,Wunderground v.1.15,2013-05-30 08:25:00,
2013-05-30 01:30:00,51.6,47.5,29.83,SW,230,2.0,4.0,86,0.00,,,0.00,Wunderground v.1.15,2013-05-30 08:30:00,
2013-05-30 01:40:00,51.4,47.4,29.83,SW,221,1.0,1.0,86,0.00,,,0.00,Wunderground v.1.15,2013-05-30 08:40:00,
2013-05-30 01:45:00,51.3,47.3,29.83,SW,221,0.0,1.0,86,0.00,,,0.00,Wunderground v.1.15,2013-05-30 08:45:00,
2013-05-30 01:50:00,51.2,47.5,29.83,SSW,200,0.0,0.0,87,0.00,,,0.00,Wunderground v.1.15,2013-05-30 08:50:00,
2013-05-30 01:55:00,51.1,47.4,29.83,WSW,243,0.0,0.0,87,0.00,,,0.00,Wunderground v.1.15,2013-05-30 08:55:00,
2013-05-30 02:00:00,50.9,47.2,29.83,SW,231,0.0,0.0,87,0.00,,,0.00,Wunderground v.1.15,2013-05-30 09:00:00,
2013-05-30 02:10:00,50.6,46.9,29.83,SSW,210,0.0,0.0,87,0.00,,,0.00,Wunderground v.1.15,2013-05-30 09:10:00,
2013-05-30 02:15:00,50.5,46.8,29.83,SSW,210,0.0,0.0,87,0.00,,,0.00,Wunderground v.1.15,2013-05-30 09:15:00,
2013-05-30 02:20:00,50.4,47.0,29.82,SSW,206,0.0,0.0,88,0.00,,,0.00,Wunderground v.1.15,2013-05-30 09:20:00,
2013-05-30 02:25:00,50.2,46.8,29.83,SSW,206,0.0,0.0,88,0.00,,,0.00,Wunderground v.1.15,2013-05-30 09:25:00,
2013-05-30 02:30:00,50.0,46.6,29.82,SSW,205,0.0,0.0,88,0.00,,,0.00,Wunderground v.1.15,2013-05-30 09:30:00,
2013-05-30 02:40:00,49.5,46.4,29.82,SSW,206,0.0,0.0,89,0.00,,,0.00,Wunderground v.1.15,2013-05-30 09:40:00,
2013-05-30 02:45:00,49.3,46.2,29.82,SSW,206,0.0,0.0,89,0.00,,,0.00,Wunderground v.1.15,2013-05-30 09:45:00,
2013-05-30 02:50:00,48.9,45.5,29.83,SSW,206,0.0,0.0,88,0.00,,,0.00,Wunderground v.1.15,2013-05-30 09:50:00,
2013-05-30 02:55:00,48.6,45.5,29.82,SSW,206,0.0,0.0,89,0.00,,,0.00,Wunderground v.1.15,2013-05-30 09:55:00,
2013-05-30 03:00:00,48.4,45.3,29.83,SSW,206,0.0,0.0,89,0.00,,,0.00,Wunderground v.1.15,2013-05-30 10:00:00,
2013-05-30 03:10:00,48.0,45.2,29.83,SSW,206,0.0,0.0,90,0.00,,,0.00,Wunderground v.1.15,2013-05-30 10:10:00,
2013-05-30 03:15:00,47.9,45.1,29.83,SSW,206,0.0,0.0,90,0.00,,,0.00,Wunderground v.1.15,2013-05-30 10:15:00,
2013-05-30 03:20:00,47.9,45.1,29.83,SSW,205,0.0,0.0,90,0.00,,,0.00,Wunderground v.1.15,2013-05-30 10:20:00,
2013-05-30 03:25:00,48.2,45.7,29.83,SW,220,1.0,1.0,91,0.00,,,0.00,Wunderground v.1.15,2013-05-30 10:25:00,
2013-05-30 03:30:00,48.8,46.3,29.83,SW,229,1.0,1.0,91,0.00,,,0.00,Wunderground v.1.15,2013-05-30 10:30:00,
2013-05-30 03:39:00,49.7,47.2,29.83,WSW,238,1.0,1.0,91,0.00,,,0.00,Wunderground v.1.15,2013-05-30 10:39:00,
2013-05-30 03:44:00,49.9,47.4,29.83,West,266,1.0,2.0,91,0.00,,,0.00,Wunderground v.1.15,2013-05-30 10:44:00,
2013-05-30 03:50:00,50.1,47.3,29.83,SSW,207,1.0,1.0,90,0.00,,,0.00,Wunderground v.1.15,2013-05-30 10:50:00,
2013-05-30 03:55:00,50.1,47.3,29.83,SW,227,1.0,1.0,90,0.00,,,0.00,Wunderground v.1.15,2013-05-30 10:55:00,
2013-05-30 04:00:00,50.1,47.3,29.83,SW,231,1.0,2.0,90,0.00,,,0.00,Wunderground v.1.15,2013-05-30 11:00:00,
2013-05-30 04:09:00,50.1,47.3,29.83,WSW,250,0.0,0.0,90,0.00,,,0.00,Wunderground v.1.15,2013-05-30 11:09:00,
2013-05-30 04:15:00,49.9,47.1,29.83,West,261,0.0,1.0,90,0.00,,,0.00,Wunderground v.1.15,2013-05-30 11:15:00,
2013-05-30 04:20:00,49.9,47.1,29.83,WSW,255,0.0,0.0,90,0.00,,,0.00,Wunderground v.1.15,2013-05-30 11:20:00,
2013-05-30 04:25:00,49.9,47.4,29.83,West,259,1.0,1.0,91,0.00,,,0.00,Wunderground v.1.15,2013-05-30 11:25:00,
2013-05-30 04:30:00,49.7,46.9,29.84,West,260,0.0,0.0,90,0.00,,,0.00,Wunderground v.1.15,2013-05-30 11:30:00,
2013-05-30 04:35:00,49.6,47.1,29.84,West,262,0.0,0.0,91,0.00,,,0.00,Wunderground v.1.15,2013-05-30 11:35:00,
2013-05-30 04:40:00,49.6,47.1,29.84,WSW,238,0.0,0.0,91,0.00,,,0.00,Wunderground v.1.15,2013-05-30 11:40:00,
2013-05-30 04:45:00,49.5,47.0,29.84,SW,228,0.0,2.0,91,0.00,,,0.00,Wunderground v.1.15,2013-05-30 11:45:00,
2013-05-30 04:55:00,49.4,46.9,29.85,SSW,203,0.0,0.0,91,0.00,,,0.00,Wunderground v.1.15,2013-05-30 11:55:00,
2013-05-30 05:00:00,49.3,46.8,29.85,South,186,0.0,0.0,91,0.00,,,0.00,Wunderground v.1.15,2013-05-30 12:00:00,
2013-05-30 05:05:00,49.2,46.7,29.85,South,186,0.0,0.0,91,0.00,,,0.00,Wunderground v.1.15,2013-05-30 12:05:00,
2013-05-30 05:10:00,49.0,46.5,29.85,South,188,0.0,0.0,91,0.00,,,0.00,Wunderground v.1.15,2013-05-30 12:10:00,
2013-05-30 05:15:00,48.7,46.2,29.85,South,188,0.0,0.0,91,0.00,,,0.00,Wunderground v.1.15,2013-05-30 12:15:00,
2013-05-30 05:20:00,48.9,46.7,29.85,SW,231,0.0,1.0,92,0.00,,,0.00,Wunderground v.1.15,2013-05-30 12:20:00,
2013-05-30 05:25:00,49.0,46.8,29.85,WSW,251,1.0,1.0,92,0.00,,,0.00,Wunderground v.1.15,2013-05-30 12:25:00,
2013-05-30 05:30:00,49.1,46.9,29.85,SSW,201,1.0,1.0,92,0.00,,,0.00,Wunderground v.1.15,2013-05-30 12:30:00,
2013-05-30 05:40:00,49.1,46.6,29.85,WSW,257,1.0,1.0,91,0.00,,,0.00,Wunderground v.1.15,2013-05-30 12:40:00,
2013-05-30 05:45:00,49.1,46.6,29.85,WSW,254,1.0,1.0,91,0.00,,,0.00,Wunderground v.1.15,2013-05-30 12:45:00,
2013-05-30 05:55:00,49.1,46.3,29.85,WSW,253,0.0,0.0,90,0.00,,,0.00,Wunderground v.1.15,2013-05-30 12:55:00,
2013-05-30 06:00:00,48.9,46.1,29.85,WSW,254,0.0,0.0,90,0.00,,,0.00,Wunderground v.1.15,2013-05-30 13:00:00,
2013-05-30 06:05:00,48.8,46.0,29.85,WSW,254,0.0,0.0,90,0.00,,,0.00,Wunderground v.1.15,2013-05-30 13:05:00,
2013-05-30 06:15:00,48.6,46.1,29.85,WSW,254,0.0,0.0,91,0.00,,,0.00,Wunderground v.1.15,2013-05-30 13:15:00,
2013-05-30 06:24:00,49.5,46.7,29.85,WSW,254,0.0,0.0,90,0.00,,,0.00,Wunderground v.1.15,2013-05-30 13:24:00,
2013-05-30 06:29:00,49.9,46.8,29.86,WSW,257,0.0,2.0,89,0.00,,,0.00,Wunderground v.1.15,2013-05-30 13:29:00,
2013-05-30 06:35:00,50.4,47.0,29.86,SW,232,1.0,2.0,88,0.00,,,0.00,Wunderground v.1.15,2013-05-30 13:35:00,
2013-05-30 06:40:00,50.8,47.4,29.86,SW,232,1.0,1.0,88,0.00,,,0.00,Wunderground v.1.15,2013-05-30 13:40:00,
2013-05-30 06:50:00,51.8,47.7,29.86,WSW,243,0.0,0.0,86,0.00,,,0.00,Wunderground v.1.15,2013-05-30 13:50:00,
2013-05-30 06:55:00,51.9,47.5,29.86,WSW,252,0.0,0.0,85,0.00,,,0.00,Wunderground v.1.15,2013-05-30 13:55:00,
2013-05-30 07:00:00,52.0,47.6,29.86,WSW,252,0.0,0.0,85,0.00,,,0.00,Wunderground v.1.15,2013-05-30 14:00:00,
2013-05-30 07:05:00,52.2,47.8,29.86,West,279,0.0,0.0,85,0.00,,,0.00,Wunderground v.1.15,2013-05-30 14:05:00,
2013-05-30 07:15:00,52.8,48.1,29.86,West,263,1.0,1.0,84,0.00,,,0.00,Wunderground v.1.15,2013-05-30 14:15:00,
2013-05-30 07:20:00,53.1,48.1,29.86,SW,223,2.0,3.0,83,0.00,,,0.00,Wunderground v.1.15,2013-05-30 14:20:00,
2013-05-30 07:25:00,53.3,48.3,29.87,SW,234,2.0,3.0,83,0.00,,,0.00,Wunderground v.1.15,2013-05-30 14:25:00,
2013-05-30 07:30:00,53.7,48.3,29.87,WSW,243,2.0,4.0,82,0.00,,,0.00,Wunderground v.1.15,2013-05-30 14:30:00,
2013-05-30 07:35:00,53.8,48.4,29.87,West,272,2.0,4.0,82,0.00,,,0.00,Wunderground v.1.15,2013-05-30 14:35:00,
2013-05-30 07:40:00,54.0,48.6,29.87,WSW,245,2.0,2.0,82,0.00,,,0.00,Wunderground v.1.15,2013-05-30 14:40:00,
2013-05-30 07:45:00,53.9,48.2,29.87,WNW,283,3.0,3.0,81,0.00,,,0.00,Wunderground v.1.15,2013-05-30 14:45:00,
2013-05-30 07:55:00,54.4,49.0,29.87,West,271,2.0,3.0,82,0.00,,,0.00,Wunderground v.1.15,2013-05-30 14:55:00,
2013-05-30 08:00:00,54.9,48.8,29.87,WSW,257,2.0,2.0,80,0.00,,,0.00,Wunderground v.1.15,2013-05-30 15:00:00,
2013-05-30 08:10:00,55.5,48.8,29.87,WSW,248,2.0,3.0,78,0.00,,,0.00,Wunderground v.1.15,2013-05-30 15:10:00,
2013-05-30 08:15:00,55.9,49.1,29.87,SSW,200,3.0,3.0,78,0.00,,,0.00,Wunderground v.1.15,2013-05-30 15:15:00,
2013-05-30 08:24:00,56.5,49.0,29.87,West,276,3.0,3.0,76,0.00,,,0.00,Wunderground v.1.15,2013-05-30 15:24:00,
2013-05-30 08:30:00,56.7,49.2,29.88,West,268,3.0,3.0,76,0.00,,,0.00,Wunderground v.1.15,2013-05-30 15:30:00,
2013-05-30 08:40:00,57.5,49.3,29.87,WSW,237,3.0,3.0,74,0.00,,,0.00,Wunderground v.1.15,2013-05-30 15:40:00,
2013-05-30 08:45:00,57.9,49.7,29.87,SSE,163,3.0,3.0,74,0.00,,,0.00,Wunderground v.1.15,2013-05-30 15:45:00,
2013-05-30 08:55:00,58.2,49.2,29.88,WNW,285,3.0,3.0,72,0.00,,,0.00,Wunderground v.1.15,2013-05-30 15:55:00,
2013-05-30 09:00:00,58.6,49.6,29.88,WSW,237,3.0,3.0,72,0.00,,,0.00,Wunderground v.1.15,2013-05-30 16:00:00,
2013-05-30 09:05:00,58.9,49.9,29.88,SSW,206,3.0,3.0,72,0.00,,,0.00,Wunderground v.1.15,2013-05-30 16:05:00,
2013-05-30 09:10:00,59.1,49.3,29.87,WNW,301,3.0,4.0,70,0.00,,,0.00,Wunderground v.1.15,2013-05-30 16:10:00,
2013-05-30 09:20:00,60.0,50.2,29.88,WSW,246,2.0,4.0,70,0.00,,,0.00,Wunderground v.1.15,2013-05-30 16:20:00,
2013-05-30 09:25:00,60.3,49.3,29.88,SSW,209,3.0,6.0,67,0.00,,,0.00,Wunderground v.1.15,2013-05-30 16:25:00,
2013-05-30 09:30:00,60.7,49.7,29.88,South,178,4.0,4.0,67,0.00,,,0.00,Wunderground v.1.15,2013-05-30 16:30:00,
2013-05-30 09:35:00,61.2,48.5,29.88,West,273,3.0,4.0,63,0.00,,,0.00,Wunderground v.1.15,2013-05-30 16:35:00,
2013-05-30 09:44:00,61.5,48.8,29.88,WSW,243,3.0,5.0,63,0.00,,,0.00,Wunderground v.1.15,2013-05-30 16:44:00,
2013-05-30 09:50:00,61.9,47.4,29.87,WSW,252,4.0,4.0,59,0.00,,,0.00,Wunderground v.1.15,2013-05-30 16:50:00,
2013-05-30 09:55:00,62.2,47.2,29.87,WNW,291,4.0,4.0,58,0.00,,,0.00,Wunderground v.1.15,2013-05-30 16:55:00,
2013-05-30 10:05:00,62.4,47.4,29.87,SSW,205,5.0,5.0,58,0.00,,,0.00,Wunderground v.1.15,2013-05-30 17:05:00,
2013-05-30 10:10:00,63.3,48.3,29.87,North,359,4.0,4.0,58,0.00,,,0.00,Wunderground v.1.15,2013-05-30 17:10:00,
2013-05-30 10:15:00,63.4,46.9,29.87,SW,214,4.0,6.0,55,0.00,,,0.00,Wunderground v.1.15,2013-05-30 17:15:00,
2013-05-30 10:20:00,64.1,48.5,29.87,West,269,4.0,4.0,57,0.00,,,0.00,Wunderground v.1.15,2013-05-30 17:20:00,
2013-05-30 10:25:00,64.4,48.8,29.88,West,266,4.0,4.0,57,0.00,,,0.00,Wunderground v.1.15,2013-05-30 17:25:00,
2013-05-30 10:30:00,64.2,48.6,29.87,SW,214,4.0,9.0,57,0.00,,,0.00,Wunderground v.1.15,2013-05-30 17:30:00,
2013-05-30 10:40:00,64.8,48.2,29.87,SW,221,4.0,4.0,55,0.00,,,0.00,Wunderground v.1.15,2013-05-30 17:40:00,
2013-05-30 10:50:00,65.1,48.5,29.87,WSW,248,4.0,4.0,55,0.00,,,0.00,Wunderground v.1.15,2013-05-30 17:50:00,
2013-05-30 10:55:00,65.5,48.4,29.87,SW,224,4.0,4.0,54,0.00,,,0.00,Wunderground v.1.15,2013-05-30 17:55:00,
2013-05-30 11:00:00,66.3,49.2,29.87,WSW,237,4.0,6.0,54,0.00,,,0.00,Wunderground v.1.15,2013-05-30 18:00:00,
2013-05-30 11:09:00,67.0,49.3,29.87,SW,219,4.0,6.0,53,0.00,,,0.00,Wunderground v.1.15,2013-05-30 18:09:00,
2013-05-30 11:14:00,67.1,48.9,29.87,SW,226,4.0,6.0,52,0.00,,,0.00,Wunderground v.1.15,2013-05-30 18:14:00,
2013-05-30 11:20:00,67.9,50.1,29.87,WNW,289,3.0,3.0,53,0.00,,,0.00,Wunderground v.1.15,2013-05-30 18:20:00,
2013-05-30 11:25:00,68.3,50.0,29.87,WNW,287,3.0,4.0,52,0.00,,,0.00,Wunderground v.1.15,2013-05-30 18:25:00,
2013-05-30 11:30:00,68.2,48.8,29.87,SW,234,4.0,4.0,50,0.00,,,0.00,Wunderground v.1.15,2013-05-30 18:30:00,
2013-05-30 11:40:00,69.0,49.6,29.87,SW,229,3.0,3.0,50,0.00,,,0.00,Wunderground v.1.15,2013-05-30 18:40:00,
2013-05-30 11:45:00,69.3,49.9,29.86,SW,232,3.0,4.0,50,0.00,,,0.00,Wunderground v.1.15,2013-05-30 18:45:00,
2013-05-30 11:50:00,69.6,49.0,29.87,West,266,4.0,4.0,48,0.00,,,0.00,Wunderground v.1.15,2013-05-30 18:50:00,
2013-05-30 12:00:00,70.1,49.5,29.87,WSW,244,4.0,6.0,48,0.00,,,0.00,Wunderground v.1.15,2013-05-30 19:00:00,
2013-05-30 12:05:00,70.7,49.5,29.86,SW,214,4.0,6.0,47,0.00,,,0.00,Wunderground v.1.15,2013-05-30 19:05:00,
2013-05-30 12:10:00,70.6,48.8,29.86,South,174,4.0,4.0,46,0.00,,,0.00,Wunderground v.1.15,2013-05-30 19:10:00,
2013-05-30 12:15:00,71.0,49.2,29.86,SSE,160,5.0,5.0,46,0.00,,,0.00,Wunderground v.1.15,2013-05-30 19:15:00,
2013-05-30 12:24:00,72.0,48.9,29.86,WNW,283,3.0,4.0,44,0.00,,,0.00,Wunderground v.1.15,2013-05-30 19:24:00,
2013-05-30 12:29:00,72.6,49.4,29.86,West,273,3.0,3.0,44,0.00,,,0.00,Wunderground v.1.15,2013-05-30 19:29:00,
2013-05-30 12:35:00,72.8,49.6,29.86,West,278,3.0,4.0,44,0.00,,,0.00,Wunderground v.1.15,2013-05-30 19:35:00,
2013-05-30 12:40:00,73.1,49.9,29.86,WSW,255,4.0,7.0,44,0.00,,,0.00,Wunderground v.1.15,2013-05-30 19:40:00,
2013-05-30 12:45:00,73.4,48.9,29.86,WSW,243,4.0,7.0,42,0.00,,,0.00,Wunderground v.1.15,2013-05-30 19:45:00,
2013-05-30 12:50:00,74.2,49.6,29.86,South,188,3.0,3.0,42,0.00,,,0.00,Wunderground v.1.15,2013-05-30 19:50:00,
2013-05-30 13:00:00,74.2,48.3,29.86,SW,224,3.0,6.0,40,0.00,,,0.00,Wunderground v.1.15,2013-05-30 20:00:00,
2013-05-30 13:05:00,74.6,49.3,29.86,SSW,210,4.0,9.0,41,0.00,,,0.00,Wunderground v.1.15,2013-05-30 20:05:00,
2013-05-30 13:14:00,74.5,47.9,29.86,SSW,206,5.0,6.0,39,0.00,,,0.00,Wunderground v.1.15,2013-05-30 20:14:00,
2013-05-30 13:20:00,74.8,48.2,29.86,South,169,5.0,6.0,39,0.00,,,0.00,Wunderground v.1.15,2013-05-30 20:20:00,
2013-05-30 13:25:00,75.5,48.1,29.86,South,188,5.0,6.0,38,0.00,,,0.00,Wunderground v.1.15,2013-05-30 20:25:00,
2013-05-30 13:35:00,75.7,47.6,29.85,South,174,5.0,5.0,37,0.00,,,0.00,Wunderground v.1.15,2013-05-30 20:35:00,
2013-05-30 13:40:00,75.6,46.0,29.85,WSW,237,5.0,5.0,35,0.00,,,0.00,Wunderground v.1.15,2013-05-30 20:40:00,
2013-05-30 13:45:00,75.5,46.7,29.85,WSW,250,4.0,8.0,36,0.00,,,0.00,Wunderground v.1.15,2013-05-30 20:45:00,
2013-05-30 13:50:00,75.9,47.0,29.85,SSE,158,5.0,5.0,36,0.00,,,0.00,Wunderground v.1.15,2013-05-30 20:50:00,
2013-05-30 13:55:00,76.6,46.9,29.85,WSW,243,4.0,5.0,35,0.00,,,0.00,Wunderground v.1.15,2013-05-30 20:55:00,
2013-05-30 14:00:00,77.0,46.5,29.84,SSW,195,4.0,6.0,34,0.00,,,0.00,Wunderground v.1.15,2013-05-30 21:00:00,
2013-05-30 14:09:00,77.4,46.0,29.84,WNW,291,5.0,5.0,33,0.00,,,0.00,Wunderground v.1.15,2013-05-30 21:09:00,
2013-05-30 14:15:00,77.0,45.7,29.84,WSW,240,5.0,7.0,33,0.00,,,0.00,Wunderground v.1.15,2013-05-30 21:15:00,
2013-05-30 14:24:00,77.2,44.2,29.84,SW,229,5.0,7.0,31,0.00,,,0.00,Wunderground v.1.15,2013-05-30 21:24:00,
2013-05-30 14:29:00,77.7,45.5,29.84,SSE,153,6.0,6.0,32,0.00,,,0.00,Wunderground v.1.15,2013-05-30 21:29:00,
2013-05-30 14:35:00,78.0,44.9,29.84,SSE,158,5.0,6.0,31,0.00,,,0.00,Wunderground v.1.15,2013-05-30 21:35:00,
2013-05-30 14:40:00,78.1,45.8,29.84,SW,219,5.0,6.0,32,0.00,,,0.00,Wunderground v.1.15,2013-05-30 21:40:00,
2013-05-30 14:45:00,78.3,45.2,29.84,WNW,299,5.0,6.0,31,0.00,,,0.00,Wunderground v.1.15,2013-05-30 21:45:00,
2013-05-30 14:50:00,78.0,44.9,29.84,SSW,210,5.0,9.0,31,0.00,,,0.00,Wunderground v.1.15,2013-05-30 21:50:00,
2013-05-30 14:55:00,78.2,44.2,29.84,SW,217,6.0,9.0,30,0.00,,,0.00,Wunderground v.1.15,2013-05-30 21:55:00,
2013-05-30 15:00:00,78.5,44.5,29.84,SSW,203,6.0,7.0,30,0.00,,,0.00,Wunderground v.1.15,2013-05-30 22:00:00,
2013-05-30 15:10:00,78.3,45.2,29.84,South,176,6.0,6.0,31,0.00,,,0.00,Wunderground v.1.15,2013-05-30 22:10:00,
2013-05-30 15:15:00,78.3,44.3,29.84,SSW,195,6.0,6.0,30,0.00,,,0.00,Wunderground v.1.15,2013-05-30 22:15:00,
2013-05-30 15:25:00,78.1,44.1,29.83,SW,223,7.0,10.0,30,0.00,,,0.00,Wunderground v.1.15,2013-05-30 22:25:00,
2013-05-30 15:30:00,77.9,44.0,29.83,SW,214,7.0,7.0,30,0.00,,,0.00,Wunderground v.1.15,2013-05-30 22:30:00,
2013-05-30 15:40:00,77.8,44.7,29.83,WSW,244,7.0,10.0,31,0.00,,,0.00,Wunderground v.1.15,2013-05-30 22:40:00,
2013-05-30 15:45:00,77.4,44.4,29.83,SW,220,8.0,10.0,31,0.00,,,0.00,Wunderground v.1.15,2013-05-30 22:45:00,
2013-05-30 15:54:00,77.5,43.6,29.83,South,169,8.0,14.0,30,0.00,,,0.00,Wunderground v.1.15,2013-05-30 22:54:00,
2013-05-30 15:59:00,77.2,44.2,29.83,SSW,208,9.0,11.0,31,0.00,,,0.00,Wunderground v.1.15,2013-05-30 22:59:00,
2013-05-30 16:05:00,77.9,43.1,29.82,SW,214,8.0,11.0,29,0.00,,,0.00,Wunderground v.1.15,2013-05-30 23:05:00,
2013-05-30 16:10:00,77.6,43.7,29.82,SE,143,7.0,7.0,30,0.00,,,0.00,Wunderground v.1.15,2013-05-30 23:10:00,
2013-05-30 16:15:00,77.9,42.2,29.83,SW,223,7.0,9.0,28,0.00,,,0.00,Wunderground v.1.15,2013-05-30 23:15:00,
2013-05-30 16:24:00,77.6,41.9,29.82,SSW,210,7.0,7.0,28,0.00,,,0.00,Wunderground v.1.15,2013-05-30 23:24:00,
2013-05-30 16:29:00,77.4,41.7,29.82,SW,221,7.0,10.0,28,0.00,,,0.00,Wunderground v.1.15,2013-05-30 23:29:00,
2013-05-30 16:34:00,76.9,39.4,29.82,SW,226,7.0,10.0,26,0.00,,,0.00,Wunderground v.1.15,2013-05-30 23:34:00,
2013-05-30 16:39:00,77.0,41.4,29.82,WSW,255,7.0,7.0,28,0.00,,,0.00,Wunderground v.1.15,2013-05-30 23:39:00,
2013-05-30 16:45:00,76.9,40.4,29.82,West,263,6.0,7.0,27,0.00,,,0.00,Wunderground v.1.15,2013-05-30 23:45:00,
2013-05-30 16:50:00,77.0,42.3,29.83,SSW,205,6.0,10.0,29,0.00,,,0.00,Wunderground v.1.15,2013-05-30 23:50:00,
2013-05-30 16:55:00,76.7,42.0,29.83,SW,215,6.0,10.0,29,0.00,,,0.00,Wunderground v.1.15,2013-05-30 23:55:00,
2013-05-30 17:00:00,76.2,41.6,29.83,WSW,250,6.0,9.0,29,0.00,,,0.00,Wunderground v.1.15,2013-05-31 00:00:00,
2013-05-30 17:09:00,75.1,43.2,29.83,SW,226,7.0,7.0,32,0.00,,,0.00,Wunderground v.1.15,2013-05-31 00:09:00,
2013-05-30 17:14:00,74.9,44.6,29.83,SW,226,7.0,7.0,34,0.00,,,0.00,Wunderground v.1.15,2013-05-31 00:14:00,
2013-05-30 17:20:00,75.1,45.6,29.83,WSW,252,5.0,5.0,35,0.00,,,0.00,Wunderground v.1.15,2013-05-31 00:20:00,
2013-05-30 17:25:00,74.7,44.5,29.83,WSW,243,5.0,8.0,34,0.00,,,0.00,Wunderground v.1.15,2013-05-31 00:25:00,
2013-05-30 17:30:00,73.8,43.7,29.83,SW,223,7.0,7.0,34,0.00,,,0.00,Wunderground v.1.15,2013-05-31 00:30:00,
2013-05-30 17:35:00,73.4,44.1,29.83,SSW,212,7.0,7.0,35,0.00,,,0.00,Wunderground v.1.15,2013-05-31 00:35:00,
2013-05-30 17:40:00,73.4,44.1,29.83,SW,235,6.0,6.0,35,0.00,,,0.00,Wunderground v.1.15,2013-05-31 00:40:00,
2013-05-30 17:49:00,72.8,43.5,29.83,SW,217,5.0,5.0,35,0.00,,,0.00,Wunderground v.1.15,2013-05-31 00:49:00,
2013-05-30 17:54:00,72.8,44.3,29.83,West,270,5.0,11.0,36,0.00,,,0.00,Wunderground v.1.15,2013-05-31 00:54:00,
2013-05-30 17:59:00,72.1,43.7,29.83,SW,217,5.0,6.0,36,0.00,,,0.00,Wunderground v.1.15,2013-05-31 00:59:00,
2013-05-30 18:05:00,71.6,43.9,29.83,SW,224,6.0,6.0,37,0.00,,,0.00,Wunderground v.1.15,2013-05-31 01:05:00,
2013-05-30 18:10:00,71.7,43.3,29.83,South,188,6.0,7.0,36,0.00,,,0.00,Wunderground v.1.15,2013-05-31 01:10:00,
2013-05-30 18:15:00,71.7,43.3,29.83,SSW,212,6.0,10.0,36,0.00,,,0.00,Wunderground v.1.15,2013-05-31 01:15:00,
2013-05-30 18:25:00,71.6,43.9,29.83,SSW,208,5.0,7.0,37,0.00,,,0.00,Wunderground v.1.15,2013-05-31 01:25:00,
2013-05-30 18:30:00,71.0,44.1,29.83,South,176,5.0,8.0,38,0.00,,,0.00,Wunderground v.1.15,2013-05-31 01:30:00,
2013-05-30 18:35:00,70.2,44.1,29.83,SW,221,7.0,8.0,39,0.00,,,0.00,Wunderground v.1.15,2013-05-31 01:35:00,
2013-05-30 18:40:00,69.8,43.7,29.83,SW,216,7.0,7.0,39,0.00,,,0.00,Wunderground v.1.15,2013-05-31 01:40:00,
2013-05-30 18:45:00,69.5,44.8,29.83,WSW,240,6.0,9.0,41,0.00,,,0.00,Wunderground v.1.15,2013-05-31 01:45:00,
2013-05-30 18:55:00,68.6,44.6,29.83,WSW,237,6.0,6.0,42,0.00,,,0.00,Wunderground v.1.15,2013-05-31 01:55:00,
2013-05-30 19:05:00,67.7,45.6,29.83,South,180,5.0,9.0,45,0.00,,,0.00,Wunderground v.1.15,2013-05-31 02:05:00,
2013-05-30 19:15:00,67.3,45.8,29.84,WSW,243,4.0,6.0,46,0.00,,,0.00,Wunderground v.1.15,2013-05-31 02:15:00,
2013-05-30 19:25:00,67.0,46.1,29.84,SW,231,4.0,4.0,47,0.00,,,0.00,Wunderground v.1.15,2013-05-31 02:25:00,
2013-05-30 19:30:00,66.8,45.3,29.84,NW,321,4.0,4.0,46,0.00,,,0.00,Wunderground v.1.15,2013-05-31 02:30:00,
2013-05-30 19:35:00,66.5,46.2,29.84,WSW,240,4.0,4.0,48,0.00,,,0.00,Wunderground v.1.15,2013-05-31 02:35:00,
2013-05-30 19:45:00,65.1,46.0,29.85,SW,229,4.0,6.0,50,0.00,,,0.00,Wunderground v.1.15,2013-05-31 02:45:00,
2013-05-30 19:50:00,64.5,45.4,29.85,SW,231,4.0,5.0,50,0.00,,,0.00,Wunderground v.1.15,2013-05-31 02:50:00,
2013-05-30 19:55:00,63.8,44.8,29.84,SSW,192,4.0,5.0,50,0.00,,,0.00,Wunderground v.1.15,2013-05-31 02:55:00,
2013-05-30 20:04:00,62.8,44.9,29.84,WSW,241,6.0,6.0,52,0.00,,,0.00,Wunderground v.1.15,2013-05-31 03:04:00,
2013-05-30 20:09:00,62.3,44.9,29.84,WSW,252,5.0,5.0,53,0.00,,,0.00,Wunderground v.1.15,2013-05-31 03:09:00,
2013-05-30 20:14:00,61.8,45.0,29.85,SW,219,5.0,5.0,54,0.00,,,0.00,Wunderground v.1.15,2013-05-31 03:14:00,
2013-05-30 20:20:00,61.4,45.1,29.85,West,268,4.0,5.0,55,0.00,,,0.00,Wunderground v.1.15,2013-05-31 03:20:00,
2013-05-30 20:30:00,60.9,45.6,29.84,SSW,200,3.0,7.0,57,0.00,,,0.00,Wunderground v.1.15,2013-05-31 03:30:00,
2013-05-30 20:35:00,60.6,45.7,29.84,South,191,3.0,7.0,58,0.00,,,0.00,Wunderground v.1.15,2013-05-31 03:35:00,
2013-05-30 20:40:00,60.3,45.9,29.84,SSW,210,3.0,3.0,59,0.00,,,0.00,Wunderground v.1.15,2013-05-31 03:40:00,
2013-05-30 20:45:00,59.9,46.0,29.84,South,172,2.0,3.0,60,0.00,,,0.00,Wunderground v.1.15,2013-05-31 03:45:00,
2013-05-30 20:54:00,59.4,45.9,29.84,SSW,202,2.0,2.0,61,0.00,,,0.00,Wunderground v.1.15,2013-05-31 03:54:00,
2013-05-30 20:59:00,59.2,46.2,29.84,SW,214,1.0,1.0,62,0.00,,,0.00,Wunderground v.1.15,2013-05-31 03:59:00,
2013-05-30 21:05:00,59.1,46.1,29.84,WSW,240,1.0,1.0,62,0.00,,,0.00,Wunderground v.1.15,2013-05-31 04:05:00,
2013-05-30 21:10:00,59.0,46.0,29.84,WSW,240,0.0,0.0,62,0.00,,,0.00,Wunderground v.1.15,2013-05-31 04:10:00,
2013-05-30 21:15:00,58.7,46.1,29.85,WSW,239,0.0,0.0,63,0.00,,,0.00,Wunderground v.1.15,2013-05-31 04:15:00,
2013-05-30 21:20:00,58.5,46.4,29.85,WSW,240,0.0,0.0,64,0.00,,,0.00,Wunderground v.1.15,2013-05-31 04:20:00,
2013-05-30 21:25:00,58.6,46.0,29.85,WSW,241,0.0,0.0,63,0.00,,,0.00,Wunderground v.1.15,2013-05-31 04:25:00,
2013-05-30 21:30:00,58.6,46.5,29.85,WSW,241,0.0,0.0,64,0.00,,,0.00,Wunderground v.1.15,2013-05-31 04:30:00,
2013-05-30 21:35:00,58.6,46.5,29.85,WSW,239,0.0,1.0,64,0.00,,,0.00,Wunderground v.1.15,2013-05-31 04:35:00,
2013-05-30 21:44:00,58.4,46.3,29.86,SSW,212,1.0,2.0,64,0.00,,,0.00,Wunderground v.1.15,2013-05-31 04:44:00,
2013-05-30 21:50:00,58.2,46.5,29.86,SW,224,0.0,0.0,65,0.00,,,0.00,Wunderground v.1.15,2013-05-31 04:50:00,
2013-05-30 21:55:00,58.2,46.5,29.86,WSW,241,1.0,2.0,65,0.00,,,0.00,Wunderground v.1.15,2013-05-31 04:55:00,
2013-05-30 22:05:00,58.0,46.7,29.86,WSW,237,1.0,1.0,66,0.00,,,0.00,Wunderground v.1.15,2013-05-31 05:05:00,
2013-05-30 22:10:00,57.8,46.5,29.86,West,273,1.0,1.0,66,0.00,,,0.00,Wunderground v.1.15,2013-05-31 05:10:00,
2013-05-30 22:15:00,57.7,46.8,29.87,WSW,244,0.0,1.0,67,0.00,,,0.00,Wunderground v.1.15,2013-05-31 05:15:00,
2013-05-30 22:20:00,57.5,46.6,29.87,WSW,244,0.0,0.0,67,0.00,,,0.00,Wunderground v.1.15,2013-05-31 05:20:00,
2013-05-30 22:25:00,57.3,46.4,29.87,WSW,244,0.0,0.0,67,0.00,,,0.00,Wunderground v.1.15,2013-05-31 05:25:00,
2013-05-30 22:30:00,57.1,46.2,29.87,WSW,243,0.0,0.0,67,0.00,,,0.00,Wunderground v.1.15,2013-05-31 05:30:00,
2013-05-30 22:35:00,57.0,46.5,29.87,WSW,243,0.0,0.0,68,0.00,,,0.00,Wunderground v.1.15,2013-05-31 05:35:00,
2013-05-30 22:40:00,56.9,46.4,29.87,WSW,243,0.0,0.0,68,0.00,,,0.00,Wunderground v.1.15,2013-05-31 05:40:00,
2013-05-30 22:50:00,56.6,46.2,29.87,WSW,244,0.0,0.0,68,0.00,,,0.00,Wunderground v.1.15,2013-05-31 05:50:00,
2013-05-30 22:55:00,56.4,46.4,29.87,SW,223,0.0,0.0,69,0.00,,,0.00,Wunderground v.1.15,2013-05-31 05:55:00,
2013-05-30 23:00:00,56.2,46.2,29.87,SW,223,0.0,0.0,69,0.00,,,0.00,Wunderground v.1.15,2013-05-31 06:00:00,
2013-05-30 23:09:00,55.7,46.1,29.87,SSW,192,0.0,1.0,70,0.00,,,0.00,Wunderground v.1.15,2013-05-31 06:09:00,
2013-05-30 23:15:00,55.5,46.2,29.87,SSW,192,0.0,1.0,71,0.00,,,0.00,Wunderground v.1.15,2013-05-31 06:15:00,
2013-05-30 23:20:00,55.2,46.0,29.87,South,185,0.0,2.0,71,0.00,,,0.00,Wunderground v.1.15,2013-05-31 06:20:00,
2013-05-30 23:30:00,55.0,46.1,29.87,SSE,165,1.0,1.0,72,0.00,,,0.00,Wunderground v.1.15,2013-05-31 06:30:00,
2013-05-30 23:39:00,54.8,45.9,29.88,SSE,164,1.0,1.0,72,0.00,,,0.00,Wunderground v.1.15,2013-05-31 06:39:00,
2013-05-30 23:45:00,54.7,45.8,29.87,South,184,1.0,1.0,72,0.00,,,0.00,Wunderground v.1.15,2013-05-31 06:45:00,
2013-05-30 23:54:00,54.4,45.9,29.88,South,184,0.0,1.0,73,0.00,,,0.00,Wunderground v.1.15,2013-05-31 06:54:00,
2013-05-30 23:59:00,54.3,45.8,29.88,South,184,0.0,0.0,73,0.00,,,0.00,Wunderground v.1.15,2013-05-31 06:59:00,